Location: New Plymouth
(39.0670°S, 174.0830°E)
Time: 16:39:29
(UTC+13:00)

SPOT 3 Rocket - Pass Details

Date: 24 January 2019
Orbit: 780 x 794 km, 98.8° (Epoch: 16 February)

Event Time Altitude Azimuth Distance (km) Brightness Sun altitude
Rises 21:58:08 0° 171° (S) 3,316 7.2 -12.7°
Reaches altitude 10° 22:00:30 10° 174° (S) 2,378 6.5 -13.0°
Maximum altitude 22:05:39 59° 252° (WSW) 912 4.2 -13.8°
Drops below altitude 10° 22:10:44 10° 331° (NNW) 2,340 5.9 -14.6°
Sets 22:13:03 0° 334° (NNW) 3,259 6.6 -14.9°
